"Sample Date","Sample Time","Sample Value","Units","Flow Rate","Sample Interval","Number Channels","Micron Size 0","Counts/Channel 0","Micron Size 1","Counts/Channel 1","Micron Size 2","Counts/Channel 2","Micron Size 3","Counts/Channel 3","Micron Size 4","Counts/Channel 4","Micron Size 5","Counts/Channel 5","Micron Size 6","Counts/Channel 6","Micron Size 7","Counts/Channel 7","Micron Size 8","Counts/Channel 8","Micron Size 9","Counts/Channel 9","Micron Size 10","Counts/Channel 10","Micron Size 11","Counts/Channel 11","Micron Size 12","Counts/Channel 12","Micron Size 13","Counts/Channel 13","Micron Size 14","Counts/Channel 14","Micron Size 15","Counts/Channel 15","Micron Size 16","Counts/Channel 16","Micron Size 17","Counts/Channel 17","Micron Size 18","Counts/Channel 18","Micron Size 19","Counts/Channel 19","Micron Size 20","Counts/Channel 20","Micron Size 21","Counts/Channel 21","Micron Size 22","Counts/Channel 22","Micron Size 23","Counts/Channel 23","Micron Size 24","Counts/Channel 24","Micron Size 25","Counts/Channel 25","Micron Size 26","Counts/Channel 26","Micron Size 27","Counts/Channel 27","Micron Size 28","Counts/Channel 28","Micron Size 29","Counts/Channel 29","Micron Size 30","Counts/Channel 30","Micron Size 31","Counts/Channel 31"
"03/11/08","12:00:00",24560.000,"cc",28238.852,6.00,6,0.100,15474.000,0.200,2830.000,0.300,2361.000,0.500,2840.000,1.000,1055.000,5.000,0
"03/11/08","12:00:06",23887.000,"cc",28340.086,6.00,6,0.100,14959.000,0.200,2779.000,0.300,2319.000,0.500,2806.000,1.000,1024.000,5.000,0
"03/11/08","12:00:12",24481.000,"cc",28326.996,6.00,6,0.100,15490.000,0.200,2841.000,0.300,2324.000,0.500,2761.000,1.000,1065.000,5.000,0
"03/11/08","12:00:18",23953.000,"cc",28327.168,6.00,6,0.100,15358.000,0.200,2639.000,0.300,2204.000,0.500,2702.000,1.000,1050.000,5.000,0
"03/11/08","12:00:24",24295.000,"cc",28282.426,6.00,6,0.100,15251.000,0.200,2735.000,0.300,2331.000,0.500,2886.000,1.000,1092.000,5.000,0
"03/11/08","12:00:30",24214.000,"cc",28285.342,6.00,6,0.100,15331.000,0.200,2721.000,0.300,2282.000,0.500,2836.000,1.000,1044.000,5.000,0
"03/11/08","12:00:36",24042.000,"cc",28352.205,6.00,6,0.100,15324.000,0.200,2731.000,0.300,2311.000,0.500,2661.000,1.000,1015.000,5.000,0
"03/11/08","12:00:42",23637.000,"cc",28369.205,6.00,6,0.100,15034.000,0.200,2665.000,0.300,2242.000,0.500,2696.000,1.000,1000.000,5.000,0
"03/11/08","12:00:48",23873.000,"cc",28284.604,6.00,6,0.100,15103.000,0.200,2710.000,0.300,2294.000,0.500,2697.000,1.000,1069.000,5.000,0
"03/11/08","12:00:54",23891.000,"cc",28307.953,6.00,6,0.100,15113.000,0.200,2743.000,0.300,2319.000,0.500,2677.000,1.000,1039.000,5.000,0
"03/11/08","12:01:00",24140.000,"cc",28430.238,6.00,6,0.100,15446.000,0.200,2723.000,0.300,2330.000,0.500,2674.000,1.000,967.000,5.000,0
"03/11/08","12:01:06",23938.000,"cc",28262.623,6.00,6,0.100,15177.000,0.200,2755.000,0.300,2316.000,0.500,2609.000,1.000,1081.000,5.000,0
"03/11/08","12:01:12",24279.000,"cc",28276.742,6.00,6,0.100,15364.000,0.200,2798.000,0.300,2251.000,0.500,2730.000,1.000,1136.000,5.000,0
"03/11/08","12:01:18",24306.000,"cc",28315.516,6.00,6,0.100,15357.000,0.200,2746.000,0.300,2346.000,0.500,2753.000,1.000,1104.000,5.000,0
"03/11/08","12:01:24",24735.000,"cc",28366.844,6.00,6,0.100,15505.000,0.200,2944.000,0.300,2397.000,0.500,2785.000,1.000,1104.000,5.000,0
"03/11/08","12:01:30",24016.000,"cc",28293.900,6.00,6,0.100,15138.000,0.200,2771.000,0.300,2270.000,0.500,2752.000,1.000,1085.000,5.000,0
"03/11/08","12:01:36",24841.000,"cc",28247.262,6.00,6,0.100,15395.000,0.200,2894.000,0.300,2434.000,0.500,2930.000,1.000,1188.000,5.000,0
"03/11/08","12:01:42",24580.000,"cc",28282.633,6.00,6,0.100,15593.000,0.200,2790.000,0.300,2343.000,0.500,2778.000,1.000,1076.000,5.000,0
"03/11/08","12:01:48",24098.000,"cc",28364.971,6.00,6,0.100,15196.000,0.200,2813.000,0.300,2351.000,0.500,2695.000,1.000,1043.000,5.000,0
"03/11/08","12:01:54",23873.000,"cc",28334.941,6.00,6,0.100,15261.000,0.200,2703.000,0.300,2257.000,0.500,2599.000,1.000,1053.000,5.000,0
"03/11/08","12:02:00",23631.000,"cc",28385.398,6.00,6,0.100,15231.000,0.200,2607.000,0.300,2258.000,0.500,2567.000,1.000,968.000,5.000,0
"03/11/08","12:02:06",23730.000,"cc",28336.801,6.00,6,0.100,15104.000,0.200,2742.000,0.300,2255.000,0.500,2693.000,1.000,936.000,5.000,0
"03/11/08","12:02:12",23812.000,"cc",28292.797,6.00,6,0.100,15098.000,0.200,2754.000,0.300,2345.000,0.500,2620.000,1.000,995.000,5.000,0
"03/11/08","12:02:18",24076.000,"cc",28374.815,6.00,6,0.100,15296.000,0.200,2749.000,0.300,2264.000,0.500,2742.000,1.000,1025.000,5.000,0
"03/11/08","12:02:24",23942.000,"cc",28303.592,6.00,6,0.100,15144.000,0.200,2753.000,0.300,2300.000,0.500,2686.000,1.000,1059.000,5.000,0
"03/11/08","12:02:30",23748.000,"cc",28273.711,6.00,6,0.100,15239.000,0.200,2703.000,0.300,2211.000,0.500,2602.000,1.000,993.000,5.000,0
"03/11/08","12:02:36",24229.000,"cc",28250.537,6.00,6,0.100,15332.000,0.200,2735.000,0.300,2350.000,0.500,2728.000,1.000,1084.000,5.000,0
"03/11/08","12:02:42",24025.000,"cc",28376.869,6.00,6,0.100,15250.000,0.200,2793.000,0.300,2273.000,0.500,2703.000,1.000,1006.000,5.000,0
"03/11/08","12:02:48",23882.000,"cc",28303.834,6.00,6,0.100,15196.000,0.200,2617.000,0.300,2303.000,0.500,2706.000,1.000,1060.000,5.000,0
"03/11/08","12:02:54",24003.000,"cc",28309.160,6.00,6,0.100,15021.000,0.200,2791.000,0.300,2340.000,0.500,2763.000,1.000,1088.000,5.000,0
"03/11/08","12:03:00",23744.000,"cc",28305.359,6.00,6,0.100,15010.000,0.200,2804.000,0.300,2204.000,0.500,2676.000,1.000,1050.000,5.000,0
"03/11/08","12:03:06",23257.000,"cc",28280.654,6.00,6,0.100,14673.000,0.200,2661.000,0.300,2222.000,0.500,2663.000,1.000,1038.000,5.000,0
"03/11/08","12:03:12",24043.000,"cc",28337.781,6.00,6,0.100,15155.000,0.200,2873.000,0.300,2300.000,0.500,2687.000,1.000,1028.000,5.000,0
"03/11/08","12:03:18",24036.000,"cc",28324.137,6.00,6,0.100,15240.000,0.200,2802.000,0.300,2336.000,0.500,2615.000,1.000,1043.000,5.000,0
"03/11/08","12:03:24",23986.000,"cc",28349.291,6.00,6,0.100,15341.000,0.200,2723.000,0.300,2255.000,0.500,2705.000,1.000,962.000,5.000,0
"03/11/08","12:03:30",23727.000,"cc",28338.969,6.00,6,0.100,15083.000,0.200,2656.000,0.300,2282.000,0.500,2660.000,1.000,1046.000,5.000,0
"03/11/08","12:03:36",24031.000,"cc",28273.777,6.00,6,0.100,15249.000,0.200,2711.000,0.300,2247.000,0.500,2721.000,1.000,1103.000,5.000,0
"03/11/08","12:03:42",23863.000,"cc",28315.316,6.00,6,0.100,15004.000,0.200,2797.000,0.300,2261.000,0.500,2713.000,1.000,1088.000,5.000,0
"03/11/08","12:03:48",23927.000,"cc",28384.561,6.00,6,0.100,15312.000,0.200,2711.000,0.300,2300.000,0.500,2668.000,1.000,936.000,5.000,0
"03/11/08","12:03:54",23799.000,"cc",28361.900,6.00,6,0.100,15265.000,0.200,2650.000,0.300,2171.000,0.500,2651.000,1.000,1062.000,5.000,0
"03/11/08","12:04:00",23857.000,"cc",28333.084,6.00,6,0.100,14988.000,0.200,2766.000,0.300,2384.000,0.500,2687.000,1.000,1032.000,5.000,0
"03/11/08","12:04:06",23382.000,"cc",28374.588,6.00,6,0.100,14807.000,0.200,2722.000,0.300,2220.000,0.500,2628.000,1.000,1005.000,5.000,0
"03/11/08","12:04:12",23533.000,"cc",28271.025,6.00,6,0.100,14946.000,0.200,2720.000,0.300,2266.000,0.500,2599.000,1.000,1002.000,5.000,0
"03/11/08","12:04:18",23833.000,"cc",28276.566,6.00,6,0.100,15007.000,0.200,2757.000,0.300,2262.000,0.500,2732.000,1.000,1075.000,5.000,0
"03/11/08","12:04:24",24142.000,"cc",28306.084,6.00,6,0.100,15220.000,0.200,2738.000,0.300,2370.000,0.500,2761.000,1.000,1053.000,5.000,0
"03/11/08","12:04:30",23794.000,"cc",28337.838,6.00,6,0.100,15147.000,0.200,2759.000,0.300,2250.000,0.500,2659.000,1.000,979.000,5.000,0
"03/11/08","12:04:36",23739.000,"cc",28333.133,6.00,6,0.100,15092.000,0.200,2737.000,0.300,2233.000,0.500,2642.000,1.000,1035.000,5.000,0
"03/11/08","12:04:42",23687.000,"cc",28309.014,6.00,6,0.100,15153.000,0.200,2713.000,0.300,2227.000,0.500,2613.000,1.000,981.000,5.000,0
"03/11/08","12:04:48",23659.000,"cc",28257.156,6.00,6,0.100,15058.000,0.200,2796.000,0.300,2235.000,0.500,2522.000,1.000,1048.000,5.000,0
"03/11/08","12:04:54",23875.000,"cc",28374.742,6.00,6,0.100,15277.000,0.200,2689.000,0.300,2267.000,0.500,2649.000,1.000,993.000,5.000,0
"03/11/08","12:05:00",23836.000,"cc",28291.971,6.00,6,0.100,15189.000,0.200,2714.000,0.300,2176.000,0.500,2685.000,1.000,1072.000,5.000,0
"03/11/08","12:05:06",23634.000,"cc",28273.773,6.00,6,0.100,15143.000,0.200,2675.000,0.300,2242.000,0.500,2574.000,1.000,1000.000,5.000,0
"03/11/08","12:05:12",24074.000,"cc",28331.990,6.00,6,0.100,15119.000,0.200,2838.000,0.300,2347.000,0.500,2761.000,1.000,1009.000,5.000,0
"03/11/08","12:05:18",24011.000,"cc",28248.766,6.00,6,0.100,15154.000,0.200,2797.000,0.300,2404.000,0.500,2618.000,1.000,1038.000,5.000,0
"03/11/08","12:05:24",24329.000,"cc",28253.936,6.00,6,0.100,15265.000,0.200,2793.000,0.300,2305.000,0.500,2858.000,1.000,1108.000,5.000,0
"03/11/08","12:05:30",24962.000,"cc",28285.512,6.00,6,0.100,15533.000,0.200,3021.000,0.300,2468.000,0.500,2787.000,1.000,1153.000,5.000,0
"03/11/08","12:05:36",24220.000,"cc",28308.379,6.00,6,0.100,15269.000,0.200,2791.000,0.300,2284.000,0.500,2780.000,1.000,1095.000,5.000,1.000
"03/11/08","12:05:42",24420.000,"cc",28234.479,6.00,6,0.100,15242.000,0.200,2820.000,0.300,2423.000,0.500,2779.000,1.000,1156.000,5.000,0
"03/11/08","12:05:48",24403.000,"cc",28293.697,6.00,6,0.100,15149.000,0.200,2788.000,0.300,2368.000,0.500,2918.000,1.000,1180.000,5.000,0
"03/11/08","12:05:54",23635.000,"cc",28254.119,6.00,6,0.100,14841.000,0.200,2703.000,0.300,2288.000,0.500,2727.000,1.000,1076.000,5.000,0
"03/11/08","12:06:00",24360.000,"cc",28277.133,6.00,6,0.100,15300.000,0.200,2779.000,0.300,2332.000,0.500,2849.000,1.000,1100.000,5.000,0
"03/11/08","12:06:06",24561.000,"cc",28314.100,6.00,6,0.100,15442.000,0.200,3007.000,0.300,2317.000,0.500,2742.000,1.000,1053.000,5.000,0
"03/11/08","12:06:12",23965.000,"cc",28321.943,6.00,6,0.100,15227.000,0.200,2742.000,0.300,2284.000,0.500,2688.000,1.000,1024.000,5.000,0
"03/11/08","12:06:18",27284.000,"cc",28295.633,6.00,6,0.100,16740.000,0.200,3510.000,0.300,2764.000,0.500,3087.000,1.000,1183.000,5.000,0
"03/11/08","12:06:24",29783.000,"cc",28359.481,6.00,6,0.100,20631.000,0.200,3274.000,0.300,2294.000,0.500,2655.000,1.000,929.000,5.000,0
"03/11/08","12:06:30",60881.000,"cc",28265.684,6.00,6,0.100,48804.000,0.200,5995.000,0.300,2403.000,0.500,2702.000,1.000,977.000,5.000,0
"03/11/08","12:06:36",28249.000,"cc",28326.260,6.00,6,0.100,19281.000,0.200,3089.000,0.300,2282.000,0.500,2624.000,1.000,973.000,5.000,0
"03/11/08","12:06:42",55317.000,"cc",28270.875,6.00,6,0.100,43312.000,0.200,5428.000,0.300,2638.000,0.500,2883.000,1.000,1056.000,5.000,0
"03/11/08","12:06:48",41433.000,"cc",28311.365,6.00,6,0.100,30876.000,0.200,4255.000,0.300,2474.000,0.500,2777.000,1.000,1051.000,5.000,0
"03/11/08","12:06:54",43551.000,"cc",28349.418,6.00,6,0.100,32465.000,0.200,4649.000,0.300,2546.000,0.500,2901.000,1.000,990.000,5.000,0
"03/11/08","12:07:00",52401.000,"cc",28326.156,6.00,6,0.100,40410.000,0.200,5389.000,0.300,2657.000,0.500,2921.000,1.000,1024.000,5.000,0
"03/11/08","12:07:06",119050.000,"cc",28321.695,6.00,6,0.100,100570.000,0.200,11744.000,0.300,2851.000,0.500,2823.000,1.000,1062.000,5.000,0
"03/11/08","12:07:12",152202.000,"cc",28311.869,6.00,6,0.100,131411.000,0.200,14199.000,0.300,2859.000,0.500,2746.000,1.000,987.000,5.000,0
"03/11/08","12:07:18",99228.000,"cc",28258.065,6.00,6,0.100,83331.000,0.200,9478.000,0.300,2657.000,0.500,2788.000,1.000,974.000,5.000,0
"03/11/08","12:07:24",221448.000,"cc",28365.932,6.00,6,0.100,192715.000,0.200,21857.000,0.300,3143.000,0.500,2713.000,1.000,1020.000,5.000,0
"03/11/08","12:07:30",115774.000,"cc",28335.527,6.00,6,0.100,98714.000,0.200,10709.000,0.300,2607.000,0.500,2797.000,1.000,947.000,5.000,0
"03/11/08","12:07:36",126997.000,"cc",28269.481,6.00,6,0.100,109140.000,0.200,11555.000,0.300,2653.000,0.500,2704.000,1.000,945.000,5.000,0
"03/11/08","12:07:42",85051.000,"cc",28315.453,6.00,6,0.100,70886.000,0.200,7839.000,0.300,2567.000,0.500,2739.000,1.000,1020.000,5.000,0
"03/11/08","12:07:48",160334.000,"cc",28366.773,6.00,6,0.100,139068.000,0.200,14888.000,0.300,2764.000,0.500,2588.000,1.000,1026.000,5.000,0
"03/11/08","12:07:54",112220.000,"cc",28264.672,6.00,6,0.100,95857.000,0.200,10052.000,0.300,2631.000,0.500,2707.000,1.000,973.000,5.000,0
"03/11/08","12:08:00",154764.000,"cc",28331.840,6.00,6,0.100,134268.000,0.200,14134.000,0.300,2672.000,0.500,2696.000,1.000,994.000,5.000,0
"03/11/08","12:08:06",176509.000,"cc",28329.383,6.00,6,0.100,153839.000,0.200,16273.000,0.300,2752.000,0.500,2668.000,1.000,977.000,5.000,0
"03/11/08","12:08:12",332851.000,"cc",28377.713,6.00,6,0.100,289939.000,0.200,35692.000,0.300,3486.000,0.500,2726.000,1.000,1008.000,5.000,0
"03/11/08","12:08:18",247918.000,"cc",28282.666,6.00,6,0.100,206334.000,0.200,34551.000,0.300,3447.000,0.500,2578.000,1.000,1008.000,5.000,0
"03/11/08","12:08:24",375510.000,"cc",28314.195,6.00,6,0.100,325243.000,0.200,42743.000,0.300,3862.000,0.500,2656.000,1.000,1006.000,5.000,0
"03/11/08","12:08:30",295198.000,"cc",28310.572,6.00,6,0.100,258118.000,0.200,30159.000,0.300,3344.000,0.500,2602.000,1.000,975.000,5.000,0
"03/11/08","12:08:36",347396.000,"cc",28376.748,6.00,6,0.100,302210.000,0.200,37878.000,0.300,3625.000,0.500,2643.000,1.000,1040.000,5.000,0
"03/11/08","12:08:42",172577.000,"cc",28226.992,6.00,6,0.100,87688.000,0.200,75187.000,0.300,5860.000,0.500,2817.000,1.000,1025.000,5.000,0
"03/11/08","12:08:48",306311.000,"cc",28302.748,6.00,6,0.100,208410.000,0.200,87160.000,0.300,6822.000,0.500,2878.000,1.000,1041.000,5.000,0
"03/11/08","12:08:54",342768.000,"cc",28332.152,6.00,6,0.100,193362.000,0.200,131971.000,0.300,12994.000,0.500,3288.000,1.000,1153.000,5.000,0
"03/11/08","12:09:00",451486.000,"cc",28361.020,6.00,6,0.100,302738.000,0.200,132667.000,0.300,11734.000,0.500,3208.000,1.000,1139.000,5.000,0
"03/11/08","12:09:06",428490.000,"cc",28311.566,6.00,6,0.100,261897.000,0.200,144726.000,0.300,17375.000,0.500,3298.000,1.000,1194.000,5.000,0
"03/11/08","12:09:12",308907.000,"cc",28280.258,6.00,6,0.100,192448.000,0.200,103891.000,0.300,8580.000,0.500,2893.000,1.000,1095.000,5.000,0
"03/11/08","12:09:18",259875.000,"cc",28271.957,6.00,6,0.100,144549.000,0.200,102777.000,0.300,8416.000,0.500,3060.000,1.000,1073.000,5.000,0
"03/11/08","12:09:24",422685.000,"cc",28313.074,6.00,6,0.100,283920.000,0.200,121224.000,0.300,13495.000,0.500,2987.000,1.000,1058.000,5.000,1.000
"03/11/08","12:09:30",209126.000,"cc",28343.568,6.00,6,0.100,132626.000,0.200,67310.000,0.300,5442.000,0.500,2741.000,1.000,1007.000,5.000,0
"03/11/08","12:09:36",326405.000,"cc",28310.193,6.00,6,0.100,271383.000,0.200,46387.000,0.300,4513.000,0.500,2990.000,1.000,1131.000,5.000,1.000
"03/11/08","12:09:42",172394.000,"cc",28344.541,6.00,6,0.100,88594.000,0.200,73756.000,0.300,5806.000,0.500,3071.000,1.000,1167.000,5.000,0
"03/11/08","12:09:48",321017.000,"cc",28323.680,6.00,6,0.100,267643.000,0.200,45009.000,0.300,4262.000,0.500,2971.000,1.000,1132.000,5.000,0
"03/11/08","12:09:54",322124.000,"cc",28284.393,6.00,6,0.100,279983.000,0.200,33264.000,0.300,4070.000,0.500,3416.000,1.000,1391.000,5.000,0
"03/11/08","12:10:00",208127.000,"cc",28392.139,6.00,6,0.100,167966.000,0.200,32257.000,0.300,3747.000,0.500,3022.000,1.000,1135.000,5.000,0
"03/11/08","12:10:06",435784.000,"cc",28232.801,6.00,6,0.100,283817.000,0.200,136392.000,0.300,11011.000,0.500,3391.000,1.000,1172.000,5.000,1.000
"03/11/08","12:10:12",306487.000,"cc",28242.627,6.00,6,0.100,246949.000,0.200,51137.000,0.300,4499.000,0.500,2837.000,1.000,1065.000,5.000,0
"03/11/08","12:10:18",351802.000,"cc",28329.506,6.00,6,0.100,306397.000,0.200,37704.000,0.300,3813.000,0.500,2846.000,1.000,1042.000,5.000,0
"03/11/08","12:10:24",238858.000,"cc",28329.086,6.00,6,0.100,172521.000,0.200,57578.000,0.300,4791.000,0.500,2851.000,1.000,1117.000,5.000,0
"03/11/08","12:10:30",234723.000,"cc",28338.184,6.00,6,0.100,152438.000,0.200,72575.000,0.300,5582.000,0.500,3016.000,1.000,1112.000,5.000,0
"03/11/08","12:10:36",211392.000,"cc",28328.363,6.00,6,0.100,103111.000,0.200,97065.000,0.300,7097.000,0.500,2984.000,1.000,1135.000,5.000,0
"03/11/08","12:10:42",282689.000,"cc",28270.703,6.00,6,0.100,203121.000,0.200,70267.000,0.300,5401.000,0.500,2807.000,1.000,1093.000,5.000,0
"03/11/08","12:10:48",335575.000,"cc",28321.953,6.00,6,0.100,290554.000,0.200,37616.000,0.300,3759.000,0.500,2617.000,1.000,1029.000,5.000,0
"03/11/08","12:10:54",311028.000,"cc",28313.922,6.00,6,0.100,246868.000,0.200,55413.000,0.300,4683.000,0.500,2958.000,1.000,1106.000,5.000,0
"03/11/08","12:11:00",224515.000,"cc",28307.979,6.00,6,0.100,164348.000,0.200,51722.000,0.300,4449.000,0.500,2890.000,1.000,1106.000,5.000,0
"03/11/08","12:11:06",246776.000,"cc",28268.641,6.00,6,0.100,180258.000,0.200,57937.000,0.300,4707.000,0.500,2820.000,1.000,1054.000,5.000,0
"03/11/08","12:11:12",278192.000,"cc",28265.377,6.00,6,0.100,243332.000,0.200,27696.000,0.300,3286.000,0.500,2845.000,1.000,1033.000,5.000,0
"03/11/08","12:11:18",354067.000,"cc",28429.451,6.00,6,0.100,307689.000,0.200,38651.000,0.300,3803.000,0.500,2863.000,1.000,1061.000,5.000,0
"03/11/08","12:11:24",360627.000,"cc",28251.422,6.00,6,0.100,301119.000,0.200,51191.000,0.300,4300.000,0.500,2919.000,1.000,1098.000,5.000,0
"03/11/08","12:11:30",339370.000,"cc",28333.865,6.00,6,0.100,280566.000,0.200,50273.000,0.300,4515.000,0.500,2934.000,1.000,1082.000,5.000,0
"03/11/08","12:11:36",193674.000,"cc",28295.984,6.00,6,0.100,167620.000,0.200,18760.000,0.300,3205.000,0.500,2938.000,1.000,1151.000,5.000,0
"03/11/08","12:11:42",180348.000,"cc",28338.555,6.00,6,0.100,155554.000,0.200,17563.000,0.300,3143.000,0.500,2969.000,1.000,1119.000,5.000,0
"03/11/08","12:11:48",164967.000,"cc",28319.803,6.00,6,0.100,141436.000,0.200,16120.000,0.300,3218.000,0.500,3082.000,1.000,1111.000,5.000,0
"03/11/08","12:11:54",157252.000,"cc",28294.100,6.00,6,0.100,134991.000,0.200,15390.000,0.300,3014.000,0.500,2827.000,1.000,1030.000,5.000,0
"03/11/08","12:12:00",165153.000,"cc",28320.752,6.00,6,0.100,141267.000,0.200,17352.000,0.300,2876.000,0.500,2682.000,1.000,976.000,5.000,0
"03/11/08","12:12:06",252422.000,"cc",28377.566,6.00,6,0.100,214847.000,0.200,30104.000,0.300,3688.000,0.500,2761.000,1.000,1022.000,5.000,0
"03/11/08","12:12:12",208475.000,"cc",28353.600,6.00,6,0.100,179224.000,0.200,22296.000,0.300,3191.000,0.500,2732.000,1.000,1032.000,5.000,0
"03/11/08","12:12:18",193988.000,"cc",28256.617,6.00,6,0.100,166447.000,0.200,20460.000,0.300,3182.000,0.500,2831.000,1.000,1068.000,5.000,0
"03/11/08","12:12:24",295211.000,"cc",28348.535,6.00,6,0.100,251343.000,0.200,35215.000,0.300,4488.000,0.500,3054.000,1.000,1110.000,5.000,1.000
"03/11/08","12:12:30",234223.000,"cc",28244.713,6.00,6,0.100,201113.000,0.200,25370.000,0.300,3620.000,0.500,3094.000,1.000,1026.000,5.000,0
"03/11/08","12:12:36",300449.000,"cc",28327.643,6.00,6,0.100,255770.000,0.200,36223.000,0.300,4328.000,0.500,3024.000,1.000,1104.000,5.000,0
"03/11/08","12:12:42",283712.000,"cc",28320.518,6.00,6,0.100,242521.000,0.200,33109.000,0.300,4092.000,0.500,2882.000,1.000,1108.000,5.000,0
"03/11/08","12:12:48",237553.000,"cc",28309.174,6.00,6,0.100,202639.000,0.200,27555.000,0.300,3461.000,0.500,2846.000,1.000,1052.000,5.000,0
"03/11/08","12:12:54",174887.000,"cc",28308.148,6.00,6,0.100,150009.000,0.200,17930.000,0.300,3085.000,0.500,2854.000,1.000,1009.000,5.000,0
"03/11/08","12:13:00",228579.000,"cc",28385.643,6.00,6,0.100,196589.000,0.200,24576.000,0.300,3477.000,0.500,2841.000,1.000,1096.000,5.000,0
"03/11/08","12:13:06",300275.000,"cc",28262.986,6.00,6,0.100,257691.000,0.200,34765.000,0.300,3912.000,0.500,2849.000,1.000,1058.000,5.000,0
"03/11/08","12:13:12",233891.000,"cc",28283.473,6.00,6,0.100,202360.000,0.200,24235.000,0.300,3457.000,0.500,2798.000,1.000,1041.000,5.000,0
"03/11/08","12:13:18",230111.000,"cc",28263.315,6.00,6,0.100,197181.000,0.200,25203.000,0.300,3553.000,0.500,3090.000,1.000,1084.000,5.000,0
"03/11/08","12:13:24",268702.000,"cc",28322.664,6.00,6,0.100,231406.000,0.200,29616.000,0.300,3740.000,0.500,2902.000,1.000,1037.000,5.000,1.000
"03/11/08","12:13:30",216189.000,"cc",28296.004,6.00,6,0.100,185398.000,0.200,22919.000,0.300,3686.000,0.500,3132.000,1.000,1054.000,5.000,0
"03/11/08","12:13:36",246539.000,"cc",28358.426,6.00,6,0.100,213471.000,0.200,25410.000,0.300,3555.000,0.500,2982.000,1.000,1121.000,5.000,0
"03/11/08","12:13:42",156129.000,"cc",28368.920,6.00,6,0.100,134108.000,0.200,15296.000,0.300,2849.000,0.500,2783.000,1.000,1093.000,5.000,0
"03/11/08","12:13:48",266349.000,"cc",28325.367,6.00,6,0.100,219297.000,0.200,38822.000,0.300,4070.000,0.500,3057.000,1.000,1103.000,5.000,0
"03/11/08","12:13:54",229663.000,"cc",28329.912,6.00,6,0.100,198738.000,0.200,23568.000,0.300,3401.000,0.500,2833.000,1.000,1123.000,5.000,0
"03/11/08","12:14:00",255976.000,"cc",28271.309,6.00,6,0.100,220631.000,0.200,27612.000,0.300,3606.000,0.500,3011.000,1.000,1115.000,5.000,1.000
"03/11/08","12:14:06",181440.000,"cc",28298.275,6.00,6,0.100,154858.000,0.200,19421.000,0.300,3202.000,0.500,2895.000,1.000,1063.000,5.000,1.000
"03/11/08","12:14:12",147870.000,"cc",28272.506,6.00,6,0.100,126778.000,0.200,14411.000,0.300,2902.000,0.500,2773.000,1.000,1006.000,5.000,0
"03/11/08","12:14:18",140506.000,"cc",28343.857,6.00,6,0.100,119837.000,0.200,13893.000,0.300,2981.000,0.500,2779.000,1.000,1016.000,5.000,0
"03/11/08","12:14:24",248592.000,"cc",28343.805,6.00,6,0.100,214362.000,0.200,26829.000,0.300,3533.000,0.500,2825.000,1.000,1043.000,5.000,0
"03/11/08","12:14:30",144729.000,"cc",28275.902,6.00,6,0.100,123688.000,0.200,14198.000,0.300,2867.000,0.500,2889.000,1.000,1087.000,5.000,0
"03/11/08","12:14:36",201474.000,"cc",28261.947,6.00,6,0.100,174569.000,0.200,19671.000,0.300,3235.000,0.500,2958.000,1.000,1041.000,5.000,0
"03/11/08","12:14:42",124595.000,"cc",28363.076,6.00,6,0.100,105752.000,0.200,12102.000,0.300,2816.000,0.500,2872.000,1.000,1053.000,5.000,0
"03/11/08","12:14:48",251366.000,"cc",28311.920,6.00,6,0.100,217089.000,0.200,26906.000,0.300,3423.000,0.500,2897.000,1.000,1051.000,5.000,0
"03/11/08","12:14:54",324680.000,"cc",28352.750,6.00,6,0.100,280769.000,0.200,36410.000,0.300,3672.000,0.500,2823.000,1.000,1006.000,5.000,0
"03/11/08","12:15:00",328321.000,"cc",28264.479,6.00,6,0.100,283567.000,0.200,37020.000,0.300,3866.000,0.500,2870.000,1.000,998.000,5.000,0
"03/11/08","12:15:06",352080.000,"cc",28330.699,6.00,6,0.100,300860.000,0.200,42844.000,0.300,4357.000,0.500,2949.000,1.000,1069.000,5.000,1.000
"03/11/08","12:15:12",284220.000,"cc",28305.541,6.00,6,0.100,245300.000,0.200,31481.000,0.300,3552.000,0.500,2851.000,1.000,1036.000,5.000,0
"03/11/08","12:15:18",258999.000,"cc",28318.549,6.00,6,0.100,224027.000,0.200,27299.000,0.300,3557.000,0.500,3044.000,1.000,1072.000,5.000,0
"03/11/08","12:15:24",293045.000,"cc",28407.809,6.00,6,0.100,253306.000,0.200,32169.000,0.300,3600.000,0.500,2849.000,1.000,1121.000,5.000,0
"03/11/08","12:15:30",330988.000,"cc",28296.219,6.00,6,0.100,271773.000,0.200,50182.000,0.300,4773.000,0.500,3104.000,1.000,1156.000,5.000,0
"03/11/08","12:15:36",218210.000,"cc",28263.453,6.00,6,0.100,186719.000,0.200,23418.000,0.300,3765.000,0.500,3150.000,1.000,1158.000,5.000,0
"03/11/08","12:15:42",234244.000,"cc",28233.865,6.00,6,0.100,201829.000,0.200,25005.000,0.300,3511.000,0.500,2813.000,1.000,1086.000,5.000,0
"03/11/08","12:15:48",252429.000,"cc",28284.648,6.00,6,0.100,216444.000,0.200,28517.000,0.300,3561.000,0.500,2908.000,1.000,999.000,5.000,0
"03/11/08","12:15:54",220777.000,"cc",28353.838,6.00,6,0.100,162366.000,0.200,49355.000,0.300,5028.000,0.500,2952.000,1.000,1076.000,5.000,0
"03/11/08","12:16:00",240430.000,"cc",28268.750,6.00,6,0.100,194435.000,0.200,37441.000,0.300,4351.000,0.500,3103.000,1.000,1100.000,5.000,0